EW8081 Weather Reports


Display with metric or nautical units.
time (UTC)temp
F
wind
direction
speed
MPH
gust
MPH
rain 1hr
in
rain 24hr
in
rain mn
in
humidity
%
barometer
mb
20260905093156 72 331 4.0 12.0 0.00 0.02 0.02 53 1007.0
20260905091558 72 355 4.0 13.0 0.00 0.02 0.02 53 1007.3
20260905090054 72 322 5.0 15.0 0.00 0.02 0.02 53 1007.2
20260905084557 72 342 6.0 13.0 0.00 0.02 0.02 55 1007.1
20260905083053 72 333 6.0 19.0 0.00 0.02 0.02 55 1007.9
20260905081553 71 20 9.0 16.0 0.00 0.02 0.02 57 1008.2
20260905080052 71 297 5.0 15.0 0.01 0.02 0.02 59 1009.1
20260905074551 71 314 7.0 13.0 0.01 0.02 0.02 60 1009.2
20260905073050 70 317 8.0 21.0 0.02 0.02 0.02 62 1009.1
20260905071550 71 291 13.0 24.0 0.02 0.02 0.02 63 1009.0
20260905070055 72 290 10.0 20.0 0.01 0.01 0.01 59 1007.8
20260905064608 73 274 10.0 31.0 0.01 0.01 0.01 59 1007.8
20260905063049 81 294 22.0 43.0 0.00 0.00 0.00 39 1007.3
20260905061548 83 295 7.0 12.0 0.00 0.00 0.00 32 1005.8
20260905060047 85 283 7.0 13.0 0.00 0.00 0.00 30 1005.6
20260905054550 86 309 6.0 17.0 0.00 0.00 0.00 28 1004.9
20260905053045 87 296 11.0 23.0 0.00 0.00 0.00 26 1004.7
20260905051547 87 22 14.0 27.0 0.00 0.00 0.00 26 1004.4
20260905050040 88 16 13.0 28.0 0.00 0.00 0.00 25 1004.4
20260905044537 90 29 13.0 27.0 0.00 0.00 0.00 25 1004.6
20260905043034 81 352 8.0 23.0 0.00 0.00 0.00 45 1005.1
20260905041528 79 93 5.0 9.0 0.00 0.00 0.00 54 1005.2
20260905040025 79 349 3.0 8.0 0.00 0.00 0.00 55 1005.3
20260905034529 77 57 3.0 12.0 0.00 0.00 0.00 58 1005.7
20260905033026 77 5 4.0 13.0 0.00 0.00 0.00 59 1006.1
20260905031518 75 360 5.0 13.0 0.00 0.00 0.00 61 1006.6
20260905030016 75 38 6.0 12.0 0.00 0.00 0.00 63 1007.2
20260905024512 75 66 7.0 13.0 0.00 0.00 0.00 61 1007.6
20260905023008 75 78 8.0 13.0 0.00 0.00 0.00 58 1008.5
20260905021510 74 87 6.0 13.0 0.00 0.00 0.00 58 1009.0
20260905020004 75 360 6.0 12.0 0.00 0.00 0.00 56 1009.3
20260905014601 76 329 2.0 11.0 0.00 0.00 0.00 55 1009.9
20260905013058 78 43 5.0 11.0 0.00 0.00 0.00 44 1009.9
20260905011557 79 340 4.0 11.0 0.00 0.00 0.00 41 1010.3
20260905010053 80 20 3.0 11.0 0.00 0.00 0.00 38 1010.6
20260905004549 80 10 2.0 10.0 0.00 0.00 0.00 40 1010.9
20260905003045 80 360 6.0 11.0 0.00 0.00 0.00 35 1011.6
20260905001540 77 20 6.0 13.0 0.00 0.00 0.00 38 1011.9
20260905000038 76 332 6.0 15.0 0.00 0.00 0.00 40 1012.4
20260904234533 74 360 8.0 15.0 0.00 0.00 0.00 43 1012.6
20260904233032 73 18 7.0 16.0 0.00 0.00 0.00 42 1013.0
20260904231530 71 355 9.0 20.0 0.00 0.00 0.00 44 1012.9
20260904230028 72 353 8.0 15.0 0.00 0.00 0.00 42 1013.2
20260904224525 74 42 6.0 12.0 0.00 0.00 0.00 44 1013.7
20260904223020 70 351 7.0 14.0 0.00 0.00 0.00 47 1014.2
20260904221534 69 5 8.0 15.0 0.00 0.00 0.00 49 1014.3
20260904220012 67 335 6.0 14.0 0.00 0.00 0.00 53 1014.1
20260904214508 66 355 6.0 14.0 0.00 0.00 0.00 54 1014.3
20260904213012 64 42 8.0 15.0 0.00 0.00 0.00 55 1014.3
20260904211501 63 337 6.0 13.0 0.00 0.00 0.00 58 1014.2
20260904204557 62 339 4.0 11.0 0.00 0.00 0.00 58 1014.5
20260904203056 62 326 5.0 14.0 0.00 0.00 0.00 58 1014.4
20260904201556 62 327 4.0 10.0 0.00 0.00 0.00 58 1014.5
20260904200121 62 337 6.0 11.0 0.00 0.00 0.00 59 1014.4
20260904194632 62 299 3.0 9.0 0.00 0.00 0.00 59 1014.5
20260904193054 62 307 4.0 11.0 0.00 0.00 0.00 59 1014.2
20260904191603 62 320 4.0 9.0 0.00 0.00 0.00 59 1014.1
20260904190053 62 328 6.0 12.0 0.00 0.00 0.00 60 1014.2
20260904184553 62 307 4.0 12.0 0.00 0.00 0.00 61 1014.4
20260904183043 61 307 5.0 15.0 0.00 0.00 0.00 64 1014.3
20260904181547 60 336 4.0 14.0 0.00 0.00 0.00 68 1014.4
20260904180039 59 319 4.0 9.0 0.00 0.00 0.00 70 1014.4
20260904174533 59 347 4.0 9.0 0.00 0.00 0.00 71 1014.3
20260904173040 59 332 3.0 8.0 0.00 0.00 0.00 71 1014.3
20260904171539 58 332 3.0 8.0 0.00 0.00 0.00 73 1014.5
20260904170030 57 316 1.0 3.0 0.00 0.00 0.00 76 1014.6
20260904164528 57 308 1.0 5.0 0.00 0.00 0.00 77 1014.9
20260904163024 57 305 0.0 1.0 0.00 0.00 0.00 76 1015.2
20260904161526 58 305 0.0 1.0 0.00 0.00 0.00 75 1015.6
20260904160020 59 304 0.0 3.0 0.00 0.00 0.00 75 1015.8
20260904154517 58 304 0.0 2.0 0.00 0.00 0.00 79 1016.0
20260904153022 57 304 0.0 3.0 0.00 0.00 0.00 78 1016.3
20260904151518 57 304 1.0 3.0 0.00 0.00 0.00 78 1016.3
20260904150010 57 304 1.0 4.0 0.00 0.00 0.00 81 1016.7
20260904144508 56 303 1.0 3.0 0.00 0.00 0.00 82 1016.5
20260904143007 56 303 2.0 3.0 0.00 0.00 0.00 83 1016.7
20260904141504 56 303 0.0 3.0 0.00 0.00 0.00 84 1016.8
20260904140002 56 303 1.0 2.0 0.00 0.00 0.00 83 1016.8
20260904134502 57 303 1.0 3.0 0.00 0.00 0.00 83 1016.9
20260904133114 58 300 2.0 5.0 0.00 0.00 0.00 83 1017.0
20260904131614 58 283 2.0 3.0 0.00 0.00 0.00 82 1017.1
20260904130059 59 283 0.0 4.0 0.00 0.00 0.00 82 1017.3
20260904124600 59 290 1.0 4.0 0.00 0.00 0.00 82 1017.4
20260904123109 59 292 2.0 5.0 0.00 0.00 0.00 83 1017.7
20260904121558 59 288 1.0 4.0 0.00 0.00 0.00 82 1017.9
20260904120057 60 305 0.0 3.0 0.00 0.00 0.00 81 1017.7
20260904114556 60 316 1.0 3.0 0.00 0.00 0.00 79 1017.9
20260904113059 61 327 0.0 3.0 0.00 0.00 0.00 78 1017.8
20260904111553 62 338 1.0 3.0 0.00 0.00 0.00 78 1017.9
20260904110053 62 10 2.0 5.0 0.00 0.00 0.00 77 1017.6
20260904104553 62 28 3.0 6.0 0.00 0.00 0.00 77 1017.7
20260904103053 62 35 3.0 8.0 0.00 0.00 0.00 75 1017.5
20260904101553 62 33 2.0 5.0 0.00 0.00 0.00 74 1017.5
20260904100101 62 41 2.0 8.0 0.00 0.00 0.00 75 1017.4
20260904094550 62 33 3.0 8.0 0.00 0.00 0.00 75 1017.2